This demonstration page uses our WeatherBlox Daily Observations layout. Learn more.

Left ArrowRight Arrow

44.8408, -93.29828

Hourly Observations for March 16, 2018

Temp ( °F °C ) Dew Point ( °F °C ) Humidity (%) Winds ( mph kmh ) Pressure ( in mb ) Visibility ( mi km ) Precip ( " mm )
12:53 am 00:53 Clear 28 -2.2 5 -15 37 37 E 9 15 30.15 1021 10 16 0.00 0.00
1:53 am 01:53 Clear 27 -2.8 5 -15 39 39 E 9 15 30.16 1022 10 16 0.00 0.00
2:53 am 02:53 Clear 26 -3.3 4 -15.6 38 38 E 12 19 30.16 1022 10 16 0.00 0.00
3:53 am 03:53 Clear 26 -3.3 4 -15.6 38 38 E 10 17 30.16 1022 10 16 0.00 0.00
4:53 am 04:53 Clear 24 -4.4 5 -15 44 44 E 9 15 30.16 1021 10 16 0.00 0.00
5:53 am 05:53 Clear 24 -4.4 4 -15.6 42 42 E 10 17 30.15 1021 10 16 0.00 0.00
6:53 am 06:53 Partly Cloudy 24 -4.4 5 -15 44 44 E 13 20 30.16 1022 10 16 0.00 0.00
7:53 am 07:53 Partly Cloudy 24 -4.4 6 -14.4 46 46 E 12 19 30.19 1022 10 16 0.00 0.00
8:53 am 08:53 Partly Cloudy 26 -3.3 8 -13.3 46 46 ESE 14 22 30.20 1023 10 16 0.00 0.00
9:53 am 09:53 Partly Cloudy 29 -1.7 9 -12.8 43 43 ESE 20 31 30.20 1023 10 16 0.00 0.00
10:53 am 10:53 Mostly Cloudy 32 0 8 -13.3 36 36 E 18 30 30.18 1022 10 16 0.00 0.00
11:53 am 11:53 Mostly Cloudy 33 0.6 8 -13.3 35 35 ESE 8 13 30.19 1022 10 16 0.00 0.00
12:53 pm 12:53 Mostly Cloudy 35 1.7 9 -12.8 34 34 ESE 12 19 30.19 1022 10 16 0.00 0.00
1:53 pm 13:53 Sunny 37 2.8 8 -13.3 30 30 ESE 14 22 30.16 1021 10 16 0.00 0.00
2:53 pm 14:53 Mostly Cloudy 39 3.9 10 -12.2 30 30 E 14 22 30.11 1020 10 16 0.00 0.00
3:53 pm 15:53 Mostly Cloudy 40 4.4 13 -10.6 33 33 E 14 22 30.09 1019 10 16 0.00 0.00
4:53 pm 16:53 Mostly Cloudy 39 3.9 14 -10 36 36 E 14 22 30.08 1019 10 16 0.00 0.00
5:53 pm 17:53 Mostly Cloudy 38 3.3 14 -10 37 37 E 10 17 30.09 1019 10 16 0.00 0.00
6:53 pm 18:53 Mostly Cloudy 37 2.8 14 -10 39 39 E 9 15 30.10 1019 10 16 0.00 0.00
7:53 pm 19:53 Mostly Cloudy 36 2.2 15 -9.4 42 42 ENE 6 9 30.10 1019 10 16 0.00 0.00
8:53 pm 20:53 Mostly Cloudy 35 1.7 14 -10 42 42 ENE 5 7 30.10 1019 10 16 0.00 0.00
9:53 pm 21:53 Mostly Cloudy 34 1.1 15 -9.4 46 46 E 9 15 30.09 1019 10 16 0.00 0.00
10:53 pm 22:53 Mostly Cloudy 34 1.1 15 -9.4 46 46 E 10 17 30.06 1018 10 16 0.00 0.00
11:53 pm 23:53 Mostly Cloudy 33 0.6 16 -8.9 49 49 E 9 15 30.04 1017 10 16 0.00 0.00

Powered by AerisWeather